Location: Harwich
(41.7160°N, 69.9939°W)
Time: 15:17:23
(UTC+02:00)

LilacSat-2 - Visible Passes

Search period start: 17 September 2024 00:00
Search period end: 27 September 2024 00:00
Orbit: 470 x 487 km, 97.5° (Epoch: 17 September)

Date Brightness Start Highest point End Pass type
(mag) Time Alt. Az. Time Alt. Az. Time Alt. Az.
17 Sep ? 01:24:30 10° SW 01:26:43 16° W 01:28:55 10° NW visible
20 Sep ? 01:40:15 10° WSW 01:41:02 11° W 01:41:49 10° WNW visible
21 Sep ? 01:11:33 10° SSW 01:14:22 22° W 01:17:11 10° NW visible
24 Sep ? 01:25:41 10° SW 01:27:52 16° W 01:30:04 10° NW visible
25 Sep ? 00:57:46 10° SSW 01:00:58 33° W 01:04:12 10° NNW visible
